Time,TemperatureF,DewpointF,PressureIn,WindDirection,WindDirectionDegrees,WindSpeedMPH,WindSpeedGustMPH,Humidity,HourlyPrecipIn,Conditions,Clouds,dailyrainin,SoftwareType,DateUTC
2013-09-04 00:00:00,60.5,58.0,29.93,NNE,23,3.0,-999.0,90,-99.99,,,0.00,weatherlink.com 1.10,2013-09-04 07:00:00,
2013-09-04 00:15:00,61.0,58.0,29.93,North,9,6.0,-999.0,89,-99.99,,,0.00,weatherlink.com 1.10,2013-09-04 07:15:00,
2013-09-04 00:30:00,61.0,58.0,29.93,NE,35,3.0,-999.0,88,-99.99,,,0.00,weatherlink.com 1.10,2013-09-04 07:30:00,
2013-09-04 00:45:00,60.7,57.0,29.93,NNE,18,4.0,-999.0,88,-99.99,,,0.00,weatherlink.com 1.10,2013-09-04 07:45:00,
2013-09-04 01:00:00,60.5,57.0,29.93,NE,49,4.0,-999.0,88,-99.99,,,0.00,weatherlink.com 1.10,2013-09-04 08:00:00,
2013-09-04 01:15:00,60.9,58.0,29.93,NNE,17,2.0,-999.0,89,-99.99,,,0.00,weatherlink.com 1.10,2013-09-04 08:15:00,
2013-09-04 01:30:00,61.3,58.0,29.93,NNW,335,5.0,-999.0,88,-99.99,,,0.00,weatherlink.com 1.10,2013-09-04 08:30:00,
2013-09-04 01:45:00,61.2,58.0,29.94,NNE,26,3.0,-999.0,88,-99.99,,,0.00,weatherlink.com 1.10,2013-09-04 08:45:00,
2013-09-04 02:00:00,61.3,58.0,29.93,NNE,25,3.0,-999.0,88,-99.99,,,0.00,weatherlink.com 1.10,2013-09-04 09:00:00,
2013-09-04 02:15:00,61.5,58.0,29.93,North,5,1.0,-999.0,88,-99.99,,,0.00,weatherlink.com 1.10,2013-09-04 09:15:00,
2013-09-04 02:30:00,61.6,58.0,29.93,NE,38,2.0,-999.0,88,-99.99,,,0.00,weatherlink.com 1.10,2013-09-04 09:30:00,
2013-09-04 02:45:00,61.7,58.0,29.93,NNW,344,3.0,-999.0,88,-99.99,,,0.00,weatherlink.com 1.10,2013-09-04 09:45:00,
2013-09-04 03:00:00,61.6,58.0,29.93,NNW,344,3.0,-999.0,88,-99.99,,,0.00,weatherlink.com 1.10,2013-09-04 10:00:00,
2013-09-04 03:15:00,61.6,58.0,29.93,NNE,32,3.0,-999.0,89,-99.99,,,0.00,weatherlink.com 1.10,2013-09-04 10:15:00,
2013-09-04 03:30:00,61.6,58.0,29.93,North,355,5.0,-999.0,88,-99.99,,,0.00,weatherlink.com 1.10,2013-09-04 10:30:00,
2013-09-04 03:45:00,61.7,58.0,29.93,North,355,2.0,-999.0,88,-99.99,,,0.00,weatherlink.com 1.10,2013-09-04 10:45:00,
2013-09-04 04:00:00,61.8,58.0,29.93,NNW,342,6.0,-999.0,88,-99.99,,,0.00,weatherlink.com 1.10,2013-09-04 11:00:00,
2013-09-04 04:15:00,62.0,59.0,29.94,NW,313,5.0,-999.0,89,-99.99,,,0.00,weatherlink.com 1.10,2013-09-04 11:15:00,
2013-09-04 04:30:00,62.1,59.0,29.93,North,355,5.0,-999.0,89,-99.99,,,0.00,weatherlink.com 1.10,2013-09-04 11:30:00,
2013-09-04 04:45:00,61.8,59.0,29.94,NW,306,6.0,-999.0,89,-99.99,,,0.00,weatherlink.com 1.10,2013-09-04 11:45:00,
2013-09-04 05:00:00,62.1,60.0,29.94,NNE,15,0.0,-999.0,91,-99.99,,,0.00,weatherlink.com 1.10,2013-09-04 12:00:00,
2013-09-04 05:15:00,61.8,59.0,29.94,North,350,6.0,-999.0,90,-99.99,,,0.00,weatherlink.com 1.10,2013-09-04 12:15:00,
2013-09-04 05:30:00,61.4,59.0,29.94,NNW,342,3.0,-999.0,91,-99.99,,,0.00,weatherlink.com 1.10,2013-09-04 12:30:00,
2013-09-04 05:45:00,61.3,58.0,29.94,NNE,14,2.0,-999.0,90,-99.99,,,0.00,weatherlink.com 1.10,2013-09-04 12:45:00,
2013-09-04 06:00:00,60.9,58.0,29.94,North,5,4.0,-999.0,90,-99.99,,,0.00,weatherlink.com 1.10,2013-09-04 13:00:00,
2013-09-04 06:15:00,60.9,58.0,29.94,North,355,2.0,-999.0,90,-99.99,,,0.00,weatherlink.com 1.10,2013-09-04 13:15:00,
2013-09-04 06:30:00,60.9,58.0,29.94,North,10,1.0,-999.0,90,-99.99,,,0.00,weatherlink.com 1.10,2013-09-04 13:30:00,
2013-09-04 06:45:00,60.9,58.0,29.95,NNE,24,1.0,-999.0,90,-99.99,,,0.00,weatherlink.com 1.10,2013-09-04 13:45:00,
2013-09-04 07:00:00,60.9,58.0,29.95,NNE,28,4.0,-999.0,90,-99.99,,,0.00,weatherlink.com 1.10,2013-09-04 14:00:00,
2013-09-04 07:15:00,60.9,58.0,29.96,North,360,1.0,-999.0,90,-99.99,,,0.00,weatherlink.com 1.10,2013-09-04 14:15:00,
2013-09-04 07:30:00,60.8,58.0,29.96,North,11,0.0,-999.0,90,-99.99,,,0.00,weatherlink.com 1.10,2013-09-04 14:30:00,
2013-09-04 07:45:00,60.4,57.0,29.96,NNE,19,1.0,-999.0,89,-99.99,,,0.00,weatherlink.com 1.10,2013-09-04 14:45:00,
2013-09-04 08:00:00,60.5,58.0,29.96,North,5,2.0,-999.0,90,-99.99,,,0.00,weatherlink.com 1.10,2013-09-04 15:00:00,
2013-09-04 08:15:00,61.4,59.0,29.97,NW,315,3.0,-999.0,90,-99.99,,,0.00,weatherlink.com 1.10,2013-09-04 15:15:00,
2013-09-04 08:30:00,62.4,59.0,29.97,NW,321,6.0,-999.0,89,-99.99,,,0.00,weatherlink.com 1.10,2013-09-04 15:30:00,
2013-09-04 08:45:00,63.0,60.0,29.97,NW,310,7.0,-999.0,89,-99.99,,,0.00,weatherlink.com 1.10,2013-09-04 15:45:00,
2013-09-04 09:00:00,63.2,60.0,29.97,WNW,297,5.0,-999.0,89,-99.99,,,0.00,weatherlink.com 1.10,2013-09-04 16:00:00,
2013-09-04 09:15:00,63.9,61.0,29.97,West,276,4.0,-999.0,89,-99.99,,,0.00,weatherlink.com 1.10,2013-09-04 16:15:00,
2013-09-04 09:30:00,63.3,60.0,29.98,North,360,3.0,-999.0,88,-99.99,,,0.00,weatherlink.com 1.10,2013-09-04 16:30:00,
2013-09-04 09:45:00,63.8,61.0,29.98,North,350,4.0,-999.0,90,-99.99,,,0.00,weatherlink.com 1.10,2013-09-04 16:45:00,
2013-09-04 10:00:00,65.4,61.0,29.98,NW,313,8.0,-999.0,84,-99.99,,,0.00,weatherlink.com 1.10,2013-09-04 17:00:00,
2013-09-04 10:15:00,66.7,60.0,29.99,NNW,343,7.0,-999.0,80,-99.99,,,0.00,weatherlink.com 1.10,2013-09-04 17:15:00,
2013-09-04 10:30:00,66.7,60.0,29.99,NNE,12,4.0,-999.0,80,-99.99,,,0.00,weatherlink.com 1.10,2013-09-04 17:30:00,
2013-09-04 10:45:00,66.4,60.0,30.00,NW,311,8.0,-999.0,80,-99.99,,,0.00,weatherlink.com 1.10,2013-09-04 17:45:00,
2013-09-04 11:00:00,65.9,60.0,30.00,NNE,22,3.0,-999.0,82,-99.99,,,0.00,weatherlink.com 1.10,2013-09-04 18:00:00,
2013-09-04 11:15:00,65.9,60.0,30.00,North,9,6.0,-999.0,82,-99.99,,,0.00,weatherlink.com 1.10,2013-09-04 18:15:00,
2013-09-04 11:30:00,65.9,61.0,30.00,NW,316,11.0,-999.0,84,-99.99,,,0.00,weatherlink.com 1.10,2013-09-04 18:30:00,
2013-09-04 11:45:00,68.2,62.0,30.00,NNW,346,10.0,-999.0,81,-99.99,,,0.00,weatherlink.com 1.10,2013-09-04 18:45:00,
2013-09-04 12:00:00,68.7,62.0,30.00,NNE,15,4.0,-999.0,80,-99.99,,,0.00,weatherlink.com 1.10,2013-09-04 19:00:00,
2013-09-04 12:15:00,68.8,62.0,30.00,WNW,296,9.0,-999.0,78,-99.99,,,0.00,weatherlink.com 1.10,2013-09-04 19:15:00,
2013-09-04 12:30:00,67.3,61.0,30.00,NW,313,14.0,-999.0,81,-99.99,,,0.00,weatherlink.com 1.10,2013-09-04 19:30:00,
2013-09-04 12:45:00,67.4,62.0,29.99,NW,304,8.0,-999.0,82,-99.99,,,0.00,weatherlink.com 1.10,2013-09-04 19:45:00,
2013-09-04 13:00:00,69.1,63.0,29.99,WNW,301,10.0,-999.0,80,-99.99,,,0.00,weatherlink.com 1.10,2013-09-04 20:00:00,
2013-09-04 13:15:00,70.5,63.0,29.99,North,5,5.0,-999.0,77,-99.99,,,0.00,weatherlink.com 1.10,2013-09-04 20:15:00,
2013-09-04 13:30:00,69.8,62.0,29.99,NW,321,9.0,-999.0,77,-99.99,,,0.00,weatherlink.com 1.10,2013-09-04 20:30:00,
2013-09-04 13:45:00,70.2,63.0,29.99,North,350,7.0,-999.0,77,-99.99,,,0.00,weatherlink.com 1.10,2013-09-04 20:45:00,
2013-09-04 14:00:00,69.0,62.0,29.99,NNE,26,9.0,-999.0,78,-99.99,,,0.00,weatherlink.com 1.10,2013-09-04 21:00:00,
2013-09-04 14:15:00,68.8,62.0,29.98,NNW,344,8.0,-999.0,80,-99.99,,,0.00,weatherlink.com 1.10,2013-09-04 21:15:00,
2013-09-04 14:30:00,70.1,63.0,29.98,NW,325,7.0,-999.0,77,-99.99,,,0.00,weatherlink.com 1.10,2013-09-04 21:30:00,
2013-09-04 14:45:00,70.1,62.0,29.98,NNW,336,4.0,-999.0,75,-99.99,,,0.00,weatherlink.com 1.10,2013-09-04 21:45:00,
2013-09-04 15:00:00,68.7,62.0,29.98,NNW,335,7.0,-999.0,80,-99.99,,,0.00,weatherlink.com 1.10,2013-09-04 22:00:00,
2013-09-04 15:15:00,68.1,62.0,29.98,NNW,328,9.0,-999.0,80,-99.99,,,0.00,weatherlink.com 1.10,2013-09-04 22:15:00,
2013-09-04 15:30:00,67.3,62.0,29.97,NW,308,13.0,-999.0,83,-99.99,,,0.00,weatherlink.com 1.10,2013-09-04 22:30:00,
2013-09-04 15:45:00,68.6,62.0,29.97,NW,325,11.0,-999.0,80,-99.99,,,0.00,weatherlink.com 1.10,2013-09-04 22:45:00,
2013-09-04 16:00:00,70.8,64.0,29.96,NW,313,9.0,-999.0,78,-99.99,,,0.00,weatherlink.com 1.10,2013-09-04 23:00:00,
2013-09-04 16:15:00,68.7,62.0,29.96,NW,321,6.0,-999.0,78,-99.99,,,0.00,weatherlink.com 1.10,2013-09-04 23:15:00,
2013-09-04 16:30:00,67.7,61.0,29.96,NNW,348,6.0,-999.0,79,-99.99,,,0.00,weatherlink.com 1.10,2013-09-04 23:30:00,
2013-09-04 16:45:00,68.2,62.0,29.96,NNW,340,11.0,-999.0,81,-99.99,,,0.00,weatherlink.com 1.10,2013-09-04 23:45:00,
2013-09-04 17:00:00,67.3,61.0,29.96,NW,323,8.0,-999.0,81,-99.99,,,0.00,weatherlink.com 1.10,2013-09-05 00:00:00,
2013-09-04 17:15:00,66.1,61.0,29.96,North,355,10.0,-999.0,84,-99.99,,,0.00,weatherlink.com 1.10,2013-09-05 00:15:00,
2013-09-04 17:30:00,65.8,61.0,29.95,NNW,331,10.0,-999.0,85,-99.99,,,0.00,weatherlink.com 1.10,2013-09-05 00:30:00,
2013-09-04 17:45:00,65.5,61.0,29.95,NW,308,7.0,-999.0,86,-99.99,,,0.00,weatherlink.com 1.10,2013-09-05 00:45:00,
2013-09-04 18:00:00,67.0,62.0,29.94,NNW,328,11.0,-999.0,83,-99.99,,,0.00,weatherlink.com 1.10,2013-09-05 01:00:00,
2013-09-04 18:15:00,66.9,62.0,29.94,ENE,58,6.0,-999.0,83,-99.99,,,0.00,weatherlink.com 1.10,2013-09-05 01:15:00,
2013-09-04 18:30:00,66.6,61.0,29.94,NNE,16,9.0,-999.0,83,-99.99,,,0.00,weatherlink.com 1.10,2013-09-05 01:30:00,
2013-09-04 18:45:00,65.6,60.0,29.94,NW,317,16.0,-999.0,83,-99.99,,,0.00,weatherlink.com 1.10,2013-09-05 01:45:00,
2013-09-04 19:00:00,64.7,60.0,29.94,NE,42,8.0,-999.0,84,-99.99,,,0.00,weatherlink.com 1.10,2013-09-05 02:00:00,
2013-09-04 19:15:00,63.5,59.0,29.94,NNW,348,8.0,-999.0,85,-99.99,,,0.00,weatherlink.com 1.10,2013-09-05 02:15:00,
2013-09-04 19:30:00,63.0,59.0,29.94,ENE,67,12.0,-999.0,85,-99.99,,,0.00,weatherlink.com 1.10,2013-09-05 02:30:00,
2013-09-04 19:45:00,62.6,59.0,29.94,North,355,12.0,-999.0,88,-99.99,,,0.00,weatherlink.com 1.10,2013-09-05 02:45:00,
2013-09-04 20:00:00,62.2,58.0,29.94,NNE,13,10.0,-999.0,87,-99.99,,,0.00,weatherlink.com 1.10,2013-09-05 03:00:00,
2013-09-04 20:15:00,61.9,58.0,29.94,NNE,15,6.0,-999.0,87,-99.99,,,0.00,weatherlink.com 1.10,2013-09-05 03:15:00,
2013-09-04 20:30:00,61.9,58.0,29.94,North,355,4.0,-999.0,87,-99.99,,,0.00,weatherlink.com 1.10,2013-09-05 03:30:00,
2013-09-04 20:45:00,61.9,58.0,29.95,North,360,4.0,-999.0,87,-99.99,,,0.00,weatherlink.com 1.10,2013-09-05 03:45:00,
2013-09-04 21:00:00,61.9,58.0,29.94,NE,38,7.0,-999.0,87,-99.99,,,0.00,weatherlink.com 1.10,2013-09-05 04:00:00,
2013-09-04 21:15:00,62.1,58.0,29.95,North,5,3.0,-999.0,87,-99.99,,,0.00,weatherlink.com 1.10,2013-09-05 04:15:00,
2013-09-04 21:31:00,62.5,59.0,29.95,NE,36,6.0,-999.0,87,-99.99,,,0.00,weatherlink.com 1.10,2013-09-05 04:31:00,
2013-09-04 21:46:00,62.8,59.0,29.95,NNE,13,5.0,-999.0,87,-99.99,,,0.00,weatherlink.com 1.10,2013-09-05 04:46:00,
2013-09-04 22:01:00,62.6,59.0,29.95,North,355,8.0,-999.0,87,-99.99,,,0.00,weatherlink.com 1.10,2013-09-05 05:01:00,
2013-09-04 22:16:00,62.6,59.0,29.95,NNW,343,4.0,-999.0,88,-99.99,,,0.00,weatherlink.com 1.10,2013-09-05 05:16:00,
2013-09-04 22:31:00,62.3,59.0,29.94,NE,55,3.0,-999.0,88,-99.99,,,0.00,weatherlink.com 1.10,2013-09-05 05:31:00,
2013-09-04 22:46:00,62.4,59.0,29.94,North,9,7.0,-999.0,88,-99.99,,,0.00,weatherlink.com 1.10,2013-09-05 05:46:00,
2013-09-04 23:01:00,62.3,58.0,29.95,NE,46,5.0,-999.0,87,-99.99,,,0.00,weatherlink.com 1.10,2013-09-05 06:01:00,
2013-09-04 23:16:00,62.3,59.0,29.95,North,11,4.0,-999.0,88,-99.99,,,0.00,weatherlink.com 1.10,2013-09-05 06:16:00,
2013-09-04 23:30:00,62.0,59.0,29.94,NE,43,6.0,-999.0,88,-99.99,,,0.00,weatherlink.com 1.10,2013-09-05 06:30:00,
2013-09-04 23:45:00,61.7,59.0,29.94,NNW,338,8.0,-999.0,89,-99.99,,,0.00,weatherlink.com 1.10,2013-09-05 06:45:00,